RH
100 97 97 99 100 99 98 96 86 70 47 33 31 28 22 15 15 16 19 23 24 27 29 38 39 35 34 28 28 30 35 41 42 61 58 19 4 8 6 9 16 30 40 40 53 59 55 63 75 80 67 61 66 66 71 66 59 61 65 70 69 66 61 56 57 55 62 73 79 83 85 87 88 84 81 77 69 67 67 64 60 60 60 61 67 72 75 77
100 97 96 98 100 100 99 98 88 74 54 36 34 35 32 23 16 16 17 22 27 27 28 36 39 40 39 32 33 40 53 64 72 79 46 8 12 12 5 12 18 30 43 48 56 49 42 54 68 73 58 52 56 61 70 65 62 63 64 69 65 62 56 51 55 54 59 69 76 80 82 86 85 81 81 79 73 69 69 68 65 67 70 69 72 73 74 75
101 98 98 98 99 99 97 98 92 79 57 37 34 35 37 31 21 18 17 20 27 28 28 32 36 44 43 37 39 43 62 76 71 60 32 14 21 15 7 15 22 25 33 45 50 38 35 51 61 58 44 42 44 55 67 62 63 63 63 69 60 58 55 49 56 57 57 67 77 78 78 84 84 82 81 79 72 69 70 68 67 71 74 72 70 70 71 73
100 100 99 99 99 99 96 93 83 69 52 38 36 35 35 34 26 21 19 19 25 29 29 29 33 43 46 42 41 49 70 64 36 30 31 25 23 15 8 20 31 29 34 42 40 32 36 49 49 39 33 35 36 48 62 58 60 61 63 65 54 56 57 49 52 57 60 67 74 77 78 81 84 85 83 78 71 70 68 62 63 68 71 70 67 67 69 71
100 100 99 97 99 100 99 93 72 53 45 42 41 38 36 34 29 23 20 19 24 29 29 30 33 40 48 45 45 61 64 36 17 25 29 23 21 13 8 30 43 36 43 44 37 36 40 43 37 31 31 33 37 43 50 50 51 57 59 58 54 55 55 47 45 56 65 67 75 78 77 78 80 85 82 75 70 68 64 57 58 61 64 66 64 65 68 69
99 100 98 95 98 100 99 93 70 48 44 45 43 41 39 35 30 25 23 20 23 28 29 31 33 41 49 47 53 64 44 15 15 24 23 20 19 11 11 38 50 43 45 40 37 38 38 39 29 27 29 32 40 40 41 43 45 52 51 49 49 47 49 44 41 56 65 68 78 77 72 74 78 84 78 72 73 68 60 55 56 59 61 63 63 64 65 66
99 100 99 94 96 99 97 87 65 50 48 46 44 45 43 37 30 27 24 21 23 27 29 31 34 42 47 51 58 53 32 14 15 23 23 17 15 17 26 48 57 48 42 37 36 33 32 35 27 26 27 28 37 39 39 39 40 49 48 44 43 40 43 39 37 54 63 66 74 69 69 74 77 82 76 72 75 68 58 55 56 60 61 62 63 63 63 64
100 100 99 96 95 96 95 81 62 55 53 47 44 47 45 38 30 28 25 22 24 26 29 31 36 47 50 56 51 31 24 14 13 26 23 13 18 36 52 62 63 47 35 33 31 29 28 28 26 28 24 25 35 37 38 40 40 46 46 43 42 39 38 34 36 55 63 64 68 68 70 72 71 76 76 74 73 66 58 56 57 60 62 62 63 63 63 65
100 100 99 99 98 97 91 74 63 61 56 48 46 47 45 39 32 29 27 25 26 26 29 30 38 51 50 54 42 16 15 17 21 28 18 12 24 49 63 60 56 42 30 29 28 27 26 23 27 29 24 29 37 33 35 44 43 42 43 41 40 38 35 32 37 54 63 64 67 70 72 70 69 71 74 75 72 66 59 57 59 60 63 63 63 62 63 65
100 100 100 100 99 99 85 67 65 64 54 49 47 46 44 41 38 33 29 28 27 27 29 30 41 53 53 54 35 9 16 29 33 27 14 14 29 52 57 45 46 39 26 26 27 24 22 24 29 31 29 32 38 34 35 44 40 37 37 35 35 32 29 27 34 53 63 65 66 68 74 72 70 71 72 74 71 64 60 61 62 60 63 63 62 62 63 65
100 100 100 100 100 98 78 61 65 62 52 49 46 46 45 42 39 35 32 30 27 27 30 34 44 52 56 53 27 8 27 41 34 24 15 15 29 49 46 35 38 34 26 24 24 23 22 25 28 30 32 32 37 36 33 35 30 29 28 28 27 23 31 34 39 57 64 67 66 63 73 73 72 73 69 72 69 63 63 66 64 60 62 62 60 62 63 64
100 99 100 98 98 97 76 61 64 59 49 45 44 46 44 39 35 33 31 27 26 27 28 36 47 54 58 50 28 17 31 41 34 23 17 18 28 39 38 32 31 28 27 25 22 23 22 24 27 30 31 30 37 37 30 27 22 25 24 26 25 17 36 53 53 60 62 67 65 60 72 75 74 73 66 69 68 64 65 68 66 61 61 60 58 60 62 63
100 99 99 96 95 94 78 65 62 55 46 42 44 46 42 36 31 28 27 25 25 26 29 41 55 63 61 43 27 25 28 33 34 26 22 25 28 34 35 32 30 26 26 24 22 24 23 24 27 28 26 25 32 31 26 24 21 26 23 22 26 18 36 62 64 62 62 66 62 58 67 67 68 69 65 66 66 67 69 68 66 62 59 58 58 60 61 62
100 99 99 98 97 89 74 64 57 51 44 39 45 47 42 38 33 29 24 22 24 27 36 47 58 67 59 35 24 29 29 29 33 30 27 29 32 40 40 32 30 27 24 23 22 22 21 21 22 23 23 22 26 24 24 26 21 23 21 19 24 20 36 64 67 63 66 66 60 59 62 58 60 66 66 66 66 69 70 67 64 63 60 56 57 59 59 61
100 100 100 99 94 80 68 61 53 50 42 39 48 47 39 36 36 31 22 21 27 34 46 55 62 67 54 36 31 34 36 34 35 34 27 27 32 43 48 41 36 32 27 25 22 21 20 17 20 23 24 23 24 26 29 30 23 21 25 26 23 19 39 66 66 60 66 68 60 60 62 55 57 64 67 67 67 69 68 65 62 62 62 56 56 58 57 59
99 100 98 96 89 73 64 57 50 50 41 41 49 47 44 37 29 27 23 27 33 39 52 61 71 73 50 34 34 36 39 37 33 33 30 26 30 41 51 50 43 38 32 28 25 23 20 17 20 23 23 25 29 31 32 32 28 22 25 29 20 18 39 60 65 60 60 67 63 62 62 56 60 67 66 66 67 67 67 63 61 62 62 57 55 56 56 58
99 96 89 86 83 70 60 53 51 51 40 42 50 48 52 46 31 28 29 35 43 53 61 65 76 72 44 27 27 28 32 31 23 29 38 34 33 39 47 49 45 40 34 30 28 22 20 18 20 23 24 27 29 31 37 41 36 26 23 26 17 22 41 49 61 64 57 64 66 65 66 57 59 68 67 66 65 66 67 64 61 61 61 58 54 54 55 58
98 91 77 73 75 68 57 50 51 50 39 41 48 44 47 50 43 38 43 54 63 68 66 65 67 51 27 19 22 24 25 25 18 27 47 46 41 42 43 46 42 36 32 29 27 23 20 18 19 26 29 31 31 32 40 41 35 29 25 25 16 26 49 48 53 65 60 62 63 63 68 60 58 67 68 65 63 65 66 63 61 59 59 58 56 55 55 58
93 87 75 68 67 62 55 48 47 48 39 39 48 48 47 53 50 46 61 73 60 46 40 47 50 34 24 23 25 24 20 21 18 26 50 52 44 43 42 42 37 33 31 27 28 23 20 21 22 28 34 37 35 33 36 32 28 26 22 22 18 22 41 39 37 53 61 64 63 62 64 59 57 64 69 65 63 65 63 61 62 60 59 57 56 56 56 58
83 82 76 66 59 54 51 46 45 45 39 39 51 52 45 43 39 36 55 63 43 30 26 33 41 33 28 26 25 22 15 16 14 20 47 51 40 40 39 38 36 34 29 26 29 24 21 25 25 29 34 34 34 31 31 27 22 23 20 21 20 19 25 23 18 37 58 62 59 58 59 58 55 58 66 65 64 67 65 65 66 63 60 57 56 56 56 57
77 78 72 62 57 54 50 46 43 42 38 39 46 43 34 32 30 27 34 37 32 33 30 30 37 34 27 26 26 22 15 14 9 16 42 46 34 33 35 38 38 35 29 25 28 25 24 28 26 27 29 30 31 29 30 29 23 23 24 23 23 21 19 18 15 26 50 55 50 57 60 59 55 54 61 66 67 68 65 67 69 66 62 57 56 57 56 56
80 77 69 64 62 57 52 46 41 39 37 39 39 34 32 34 35 34 32 29 25 28 29 29 31 29 28 27 26 23 18 14 8 13 32 38 31 26 29 36 35 32 30 27 28 27 27 27 26 27 28 28 28 26 28 29 25 24 26 25 25 22 17 19 17 23 45 49 43 53 57 50 49 51 58 64 66 65 62 63 65 66 64 60 57 56 56 56
84 81 76 71 65 59 53 45 39 38 37 39 37 33 34 38 38 36 32 29 26 25 24 25 24 23 23 20 20 22 18 13 8 10 21 28 26 21 24 34 33 29 30 28 27 29 27 26 28 30 29 30 29 26 26 26 25 24 26 27 25 22 18 18 18 26 44 45 38 45 45 38 41 49 57 60 60 61 61 60 62 65 64 61 58 55 55 56
85 85 83 73 64 59 51 42 38 38 37 38 37 35 36 38 37 32 28 30 33 29 23 22 21 21 19 14 17 18 13 11 9 10 17 18 19 17 20 30 33 30 30 29 28 29 29 28 29 31 30 31 32 29 27 27 27 24 24 26 25 23 21 17 17 22 33 39 41 44 35 30 40 47 52 56 60 62 63 62 63 65 63 60 58 55 53 53
84 85 83 71 61 55 46 40 36 36 39 38 36 35 35 37 36 28 27 32 32 26 22 22 20 19 15 11 14 12 8 10 7 10 18 15 14 16 18 25 29 31 33 32 31 28 29 30 29 33 32 31 33 32 30 30 30 28 24 24 23 23 22 20 17 17 21 25 35 40 27 27 45 51 50 58 67 66 64 66 65 64 64 62 60 57 53 51
78 78 75 67 56 47 42 39 36 36 39 37 34 35 35 34 32 27 30 34 25 18 18 18 16 15 11 9 10 9 8 9 7 11 19 17 15 16 19 22 22 29 34 32 31 28 28 28 28 32 33 32 34 33 30 29 31 32 26 22 21 21 21 21 19 19 19 18 24 31 25 24 36 44 49 59 68 68 66 66 65 63 63 61 60 58 54 51
70 70 68 61 49 42 41 38 37 38 36 33 33 34 34 32 28 25 31 35 26 19 16 13 12 11 9 9 8 8 9 10 10 11 13 15 16 14 17 21 20 25 29 30 33 31 27 28 27 28 30 31 34 33 29 28 31 32 25 21 21 21 21 21 21 21 19 18 20 26 29 25 27 40 56 64 67 69 69 67 65 62 60 58 59 57 54 52
62 64 61 52 41 39 42 39 38 37 32 32 33 32 33 30 26 26 32 36 27 18 14 11 10 9 9 9 8 8 9 10 12 12 10 12 14 13 15 20 21 22 25 28 32 28 25 28 27 26 28 29 30 28 25 25 29 28 21 20 20 20 21 20 20 22 20 19 20 27 34 29 31 48 61 66 68 67 65 62 62 62 59 58 57 56 55 52
56 58 52 45 39 36 39 38 36 34 30 33 33 31 31 27 26 30 36 34 22 13 12 11 10 10 9 9 9 10 10 11 14 13 11 13 14 12 14 17 17 19 21 24 27 23 19 22 23 24 27 28 25 22 22 24 26 23 19 19 18 18 20 19 20 21 21 23 21 26 33 28 35 54 59 62 66 61 57 53 51 55 57 57 56 55 54 53
50 49 43 41 40 38 39 38 33 32 32 35 35 31 29 28 29 34 35 29 20 14 12 11 11 11 10 9 11 14 14 15 15 13 13 15 14 13 14 14 13 16 17 19 23 19 13 19 22 19 20 22 20 20 21 22 21 20 19 19 19 19 20 21 22 20 22 27 20 20 31 27 33 53 57 58 59 57 57 55 49 50 53 56 56 54 52 52
43 41 38 39 41 39 39 37 32 33 36 37 37 31 27 30 32 37 34 25 19 17 14 14 14 13 12 12 15 17 16 17 17 15 16 16 16 17 17 16 15 15 15 17 20 15 12 18 18 14 16 16 14 16 20 21 20 19 20 21 23 25 24 23 24 23 26 28 18 18 31 31 38 56 58 54 54 53 57 59 56 54 52 53 55 53 52 52
36 34 34 37 39 39 38 36 34 36 38 39 38 31 28 30 31 36 34 23 20 19 17 18 16 15 17 17 19 19 17 18 18 17 19 18 19 21 21 23 24 20 18 19 18 14 13 14 12 12 16 14 12 14 18 22 21 20 20 23 28 30 30 30 29 26 27 26 19 23 34 40 52 63 59 55 54 53 55 56 57 58 56 53 52 52 52 51
29 28 28 31 36 39 40 42 40 40 40 40 37 30 30 32 32 36 32 23 22 21 19 19 16 15 16 16 18 19 18 20 20 19 19 19 21 22 21 23 24 23 20 18 18 17 16 15 12 12 13 12 13 13 16 22 23 22 22 24 29 32 32 34 31 28 28 23 17 24 35 44 57 61 56 54 52 50 53 53 54 57 58 56 51 49 50 50
24 23 24 26 30 34 38 42 42 42 38 33 28 25 30 35 34 33 29 24 23 21 19 19 17 16 17 18 19 19 20 21 20 20 20 20 22 24 23 22 23 23 20 18 18 20 21 19 15 13 13 12 14 14 14 18 21 22 20 21 26 27 27 30 28 24 25 21 19 28 36 43 55 59 54 50 46 48 52 52 54 56 56 55 50 46 48 49
23 22 23 25 27 30 35 38 38 39 32 23 23 26 31 36 33 30 27 25 23 21 19 18 18 19 19 20 20 19 19 21 21 22 22 23 26 27 26 24 24 25 22 21 21 20 21 19 14 14 15 13 15 16 14 15 19 20 18 20 24 21 21 26 26 23 22 20 24 33 38 44 53 53 47 44 45 49 53 53 55 57 56 55 54 51 48 46
24 23 24 24 26 30 35 38 38 38 28 19 24 30 31 31 29 26 25 24 22 22 20 18 18 20 21 22 23 22 19 20 23 23 24 26 27 28 28 26 25 27 25 23 22 21 20 17 14 15 16 14 16 16 14 15 18 19 19 21 21 17 19 25 27 27 23 19 29 37 41 49 51 46 45 46 49 52 55 56 57 58 59 58 59 58 55 50
24 26 27 24 24 28 33 35 34 32 26 21 27 32 28 25 24 24 25 23 21 21 21 20 21 22 24 25 27 26 21 21 23 24 25 27 26 28 31 28 24 27 28 25 23 24 22 16 14 17 16 14 17 16 15 15 15 18 19 19 19 16 19 24 27 29 22 20 40 53 52 55 56 53 52 51 54 58 58 59 59 60 61 61 61 60 60 57
23 26 28 24 23 26 27 26 24 24 25 26 32 34 27 23 22 22 25 24 22 21 21 23 24 25 26 27 29 29 25 22 24 26 27 27 27 28 33 31 25 26 29 25 23 25 24 16 14 17 17 16 16 15 16 15 12 16 16 15 19 21 25 28 28 29 22 26 51 63 60 60 60 62 62 59 61 62 60 60 60 61 63 63 63 61 61 60
25 25 24 21 22 23 21 20 21 21 24 29 35 33 25 22 22 22 25 25 23 21 22 24 26 27 28 27 29 30 28 26 27 29 30 29 28 28 32 33 29 28 28 25 25 28 27 21 16 15 18 18 16 17 21 19 15 15 14 14 18 21 25 27 25 24 22 34 52 59 62 60 53 58 64 63 63 61 59 60 59 59 61 61 62 62 62 62
32 28 23 19 19 20 17 16 21 24 26 31 33 30 26 24 22 22 24 24 24 24 24 26 27 29 30 29 28 30 31 31 30 31 32 32 30 29 32 35 33 32 30 26 29 31 28 24 21 17 17 20 21 21 22 22 19 16 17 18 18 20 22 22 24 24 25 37 47 51 62 60 50 60 67 63 60 58 56 57 55 55 56 56 59 61 62 62
38 29 24 20 17 18 16 18 27 31 29 30 29 28 30 28 24 24 24 23 24 24 25 28 28 28 30 30 30 32 33 33 33 34 34 34 35 33 32 35 38 36 30 24 26 31 29 25 24 23 22 23 24 24 22 22 21 19 20 22 19 21 24 23 27 27 27 37 43 46 58 59 56 68 70 60 56 54 53 53 54 54 53 54 55 56 59 62
37 29 25 22 17 15 16 22 34 35 29 28 27 26 31 32 27 26 27 25 24 24 25 30 31 32 33 31 32 34 35 35 35 36 37 37 37 36 33 35 39 37 31 26 27 32 34 31 29 28 26 25 24 25 24 22 21 20 20 22 20 20 24 26 29 30 32 40 43 45 55 62 68 74 70 61 57 52 52 53 53 54 54 55 56 54 56 59
41 30 22 21 19 17 19 25 32 31 27 26 27 25 28 31 28 27 29 28 26 25 28 31 32 33 35 33 33 34 35 36 37 37 38 38 34 33 34 36 39 37 32 30 28 28 33 37 35 32 29 26 23 24 24 22 22 22 20 22 23 21 22 24 28 33 36 40 42 46 52 62 76 78 67 61 59 54 54 54 53 55 55 56 59 58 57 58
53 41 30 24 17 15 21 28 30 31 30 28 28 28 27 28 29 30 31 32 30 28 31 34 33 33 34 33 34 35 35 37 38 37 37 37 33 32 34 35 38 37 34 37 32 23 28 39 38 33 32 30 26 23 24 24 24 25 24 23 23 23 22 24 28 34 37 39 40 42 48 62 78 78 69 66 63 57 57 55 53 55 55 56 60 61 62 62
48 41 38 28 21 22 27 29 29 30 34 34 32 33 31 28 29 30 30 32 32 31 33 34 33 33 33 33 34 35 35 34 37 38 37 35 31 31 32 33 37 36 35 43 42 28 33 46 43 34 28 27 31 31 30 32 29 26 26 23 22 24 24 27 31 32 35 40 40 40 50 69 80 76 74 75 68 62 61 57 55 55 55 56 59 62 65 65
37 38 41 31 26 29 32 33 31 30 34 38 36 35 35 32 30 29 28 29 30 31 33 33 34 33 31 33 36 37 36 34 36 39 39 35 30 31 35 34 33 36 37 43 44 36 39 48 49 45 37 33 41 43 38 37 33 27 27 24 23 24 25 28 30 30 33 37 41 50 63 76 81 78 78 79 73 69 66 61 59 59 57 57 58 60 63 65
42 46 49 42 34 32 33 34 36 36 35 37 39 39 38 37 33 29 27 29 32 32 31 33 37 36 33 37 40 40 41 38 36 39 40 39 34 32 36 32 30 40 42 37 38 39 40 42 44 48 45 39 42 42 37 34 32 30 30 26 24 26 27 28 28 30 36 35 41 60 71 75 80 79 76 75 73 71 70 64 62 62 59 58 58 59 60 63
48 49 52 49 41 38 39 37 39 42 39 40 43 42 40 38 37 36 32 29 31 33 32 34 38 39 41 44 42 43 48 44 42 47 45 42 40 33 30 29 31 40 39 30 35 41 39 38 40 43 44 42 40 38 35 34 31 30 31 29 28 27 27 31 32 33 37 38 47 65 73 74 78 75 70 70 69 69 71 67 61 61 61 59 59 59 60 61
51 49 50 47 43 44 48 46 43 41 42 48 48 43 44 41 38 40 37 30 30 35 38 39 41 42 46 50 48 49 52 45 42 49 47 43 44 39 33 33 32 34 33 32 41 45 39 40 41 40 43 42 40 39 39 37 33 31 33 32 30 28 28 32 36 37 43 51 59 67 71 73 73 67 66 67 64 65 69 67 62 62 64 63 61 61 61 61
56 51 48 45 47 53 54 50 46 41 43 51 49 45 49 45 39 40 39 34 33 35 38 41 41 42 44 47 45 43 46 44 40 42 44 44 44 41 39 38 35 34 36 39 44 43 43 49 48 40 40 41 40 40 40 37 34 32 32 31 29 30 31 32 38 46 55 62 65 67 72 76 70 63 65 67 64 64 68 70 69 66 65 65 64 64 63 63
74 73 65 53 50 57 54 50 52 48 43 46 48 49 49 43 42 44 41 42 42 37 36 39 41 42 42 43 43 40 42 45 38 34 37 39 38 37 38 38 36 36 40 45 47 43 42 50 50 39 35 38 41 44 43 39 33 31 32 34 34 34 36 41 52 63 66 67 67 65 70 75 69 63 64 66 65 65 66 69 71 69 65 64 66 66 65 64
81 78 71 57 50 55 54 50 52 49 45 47 51 53 50 45 48 49 43 45 47 40 37 40 42 43 42 44 45 39 37 40 37 34 36 35 36 40 41 39 39 41 42 44 49 51 46 45 45 40 35 35 41 48 48 38 28 29 35 40 43 40 39 49 65 73 71 67 64 60 64 71 68 64 66 66 64 65 65 64 67 69 66 63 64 66 65 64
Wind_Speed
17 17 17 17 17 17 17 18 18 17 16 15 15 13 13 13 12 12 11 10 9 10 10 9 10 11 11 11 10 9 9 8 8 6 8 12 10 7 9 17 21 24 26 24 24 19 14 11 11 11 9 6 3 5 6 2 2 2 2 2 1 0 1 2 3 5 2 2 7 9 6 6 8 7 3 4 8 10 9 7 8 9 8 12 17 23 26 25
17 17 18 17 17 17 18 18 18 18 17 16 15 14 14 14 13 12 11 10 9 9 9 9 9 10 10 10 10 9 9 8 7 10 14 13 9 10 13 20 24 28 29 27 25 20 15 11 12 11 6 4 2 5 7 3 3 3 2 1 1 0 1 1 4 6 4 2 7 9 7 6 7 9 5 6 10 10 10 9 10 13 13 16 21 25 26 25
18 18 18 18 18 18 18 18 18 18 17 17 16 15 15 15 14 12 11 10 8 8 9 9 9 9 9 9 9 9 8 6 5 7 6 5 9 14 16 23 27 30 30 29 27 23 19 15 16 12 5 3 2 4 6 4 4 4 2 2 1 1 3 3 5 6 4 4 9 10 8 6 6 6 5 7 12 10 10 11 11 13 14 17 21 24 26 25
19 19 18 18 19 18 19 18 18 18 17 17 17 16 17 16 15 13 12 10 8 8 8 9 9 9 9 8 7 8 8 4 2 2 2 4 8 16 19 26 29 30 29 28 27 23 22 19 15 9 4 4 3 4 6 5 4 3 4 3 1 1 5 4 5 6 2 5 10 10 9 7 6 4 4 9 11 9 9 11 13 16 18 20 20 23 25 24
19 19 19 19 19 19 19 18 18 18 18 18 17 17 17 17 16 14 12 10 8 7 8 9 7 8 8 7 5 7 6 2 1 3 6 5 10 19 22 29 31 30 29 27 24 21 21 17 11 5 2 4 5 5 5 7 5 3 5 5 3 4 8 6 6 4 2 5 9 11 10 8 8 4 6 11 7 5 8 9 14 19 20 22 22 23 23 23
19 20 19 20 20 19 19 18 18 18 18 19 19 19 18 18 16 14 13 10 8 7 8 8 7 7 7 6 5 5 3 1 3 6 7 1 16 21 26 32 31 29 29 26 22 18 16 12 9 6 3 4 7 6 4 8 6 4 4 5 7 7 8 8 6 2 3 6 10 10 8 9 9 5 7 9 2 3 9 11 15 18 21 24 24 23 22 22
19 20 20 20 20 19 19 19 19 19 19 19 20 20 19 18 16 15 13 10 8 7 8 8 6 5 5 4 3 2 2 4 4 4 3 8 20 24 28 31 29 29 28 25 20 15 14 11 9 6 5 4 6 6 4 8 8 6 5 5 8 8 9 10 7 3 5 7 9 8 8 10 10 6 7 8 2 6 10 13 15 18 22 23 21 20 20 21
19 19 19 20 20 20 20 20 20 20 20 21 22 22 21 20 17 15 12 9 7 7 8 7 5 4 3 2 1 1 2 4 3 1 6 15 23 25 28 26 26 27 25 24 19 15 14 12 10 6 6 4 5 8 5 6 8 8 7 7 9 8 10 10 6 4 6 6 7 8 8 9 8 5 7 8 5 8 11 14 16 18 20 20 19 20 19 19
19 19 19 19 20 20 20 20 20 20 21 22 24 23 22 20 17 15 12 9 7 7 8 7 5 3 1 1 1 2 2 3 3 6 12 19 24 26 26 23 25 24 21 19 17 17 13 10 10 6 4 4 5 8 7 5 4 6 9 9 10 11 11 10 6 6 7 5 7 9 8 8 6 4 6 7 6 8 12 14 16 18 18 18 18 19 19 18
19 19 19 20 20 20 21 21 21 22 23 24 25 24 23 20 17 14 11 9 7 8 7 7 5 3 2 1 1 1 1 5 2 13 17 20 24 26 23 22 26 24 18 15 16 17 10 8 9 3 2 4 5 6 6 5 1 3 8 10 11 13 11 9 6 8 7 6 9 9 8 8 6 3 5 6 6 9 13 14 16 17 17 17 16 17 18 17
20 20 20 20 21 21 21 22 22 23 24 26 26 25 23 20 17 14 11 8 8 8 8 7 6 5 3 1 2 1 4 3 9 18 19 20 24 26 23 24 26 23 19 12 13 14 9 10 8 2 2 3 5 4 4 3 3 4 6 8 10 10 8 5 4 9 8 6 8 8 7 7 6 4 5 8 9 10 13 15 15 16 15 16 17 16 15 16
21 21 21 22 22 22 22 22 22 24 25 26 27 26 24 20 16 13 10 8 9 9 8 9 7 7 4 1 4 4 5 4 13 21 21 20 22 23 22 25 24 23 22 13 11 12 10 14 10 3 1 1 6 4 1 1 4 5 5 7 8 8 4 1 2 9 7 6 9 9 6 7 9 6 5 10 11 10 14 14 15 15 14 15 16 15 13 15
21 21 22 22 22 22 22 22 23 25 25 27 27 25 22 17 14 12 9 9 10 9 9 9 9 8 3 2 3 5 2 6 8 20 22 20 19 16 17 24 21 19 21 16 15 14 11 12 9 3 1 1 4 1 2 2 4 4 3 4 6 6 2 3 3 8 6 5 11 9 3 4 10 9 6 11 13 12 14 14 14 13 12 14 14 14 13 15
22 22 22 22 22 22 22 22 23 24 25 26 25 21 17 13 11 8 7 10 10 10 10 9 10 8 2 4 3 2 6 1 4 17 22 19 15 12 13 19 16 13 13 12 15 17 11 7 4 3 1 2 0 2 2 1 2 2 2 2 2 3 0 3 2 8 6 5 10 9 4 1 6 10 9 11 14 14 14 14 14 12 12 14 14 14 14 15
23 22 22 22 23 23 23 23 23 24 24 24 21 16 13 11 8 3 7 10 10 12 12 10 10 6 2 5 3 0 5 4 7 16 21 20 15 10 11 15 12 10 9 6 9 16 12 4 3 4 2 1 2 3 1 0 0 0 2 3 1 2 0 2 3 7 5 4 9 8 4 0 2 8 12 11 13 14 14 15 15 14 14 15 14 14 14 14
24 23 23 23 23 23 23 23 22 23 23 20 15 11 12 10 6 4 9 12 12 13 11 8 7 4 2 2 1 3 5 4 6 12 18 21 15 11 13 14 10 8 7 5 5 10 10 3 2 2 2 2 2 2 1 1 2 1 3 2 2 2 1 2 3 6 5 5 10 8 3 1 3 5 10 12 14 14 14 15 16 15 15 15 14 14 13 13
24 24 24 24 24 24 23 22 22 22 21 16 8 9 13 11 11 12 13 13 13 11 7 4 5 4 3 1 2 3 2 3 3 8 19 19 13 14 16 11 8 8 7 4 4 6 8 5 3 2 2 3 2 2 4 5 5 3 3 2 1 2 2 1 3 6 7 6 9 9 6 2 3 5 9 12 14 15 15 15 16 16 14 14 13 14 14 14
24 25 25 25 24 24 23 22 21 21 19 10 4 9 14 14 14 15 16 14 11 8 4 2 3 3 3 3 2 1 1 2 1 5 16 15 11 15 13 8 9 10 8 5 3 4 6 5 4 3 3 5 4 4 5 4 5 5 4 3 2 1 2 2 2 6 10 8 8 9 9 8 3 6 8 10 13 14 14 14 15 16 16 15 13 13 14 14
24 26 26 26 25 24 23 21 19 19 16 6 7 10 13 12 9 10 12 9 5 2 0 2 3 1 1 2 3 4 5 3 2 5 13 15 13 13 10 10 12 11 8 6 4 5 6 5 5 6 7 8 7 6 5 1 3 5 3 2 2 1 2 2 0 5 10 8 7 10 10 11 8 7 8 10 11 13 13 14 14 15 16 15 14 13 13 14
27 27 27 26 24 23 22 19 18 16 13 4 7 5 5 4 2 2 3 2 4 4 3 2 5 3 3 2 4 6 6 2 2 6 14 17 16 13 8 8 8 6 7 7 6 6 5 6 8 8 8 8 7 7 7 1 2 3 3 3 1 0 2 1 1 3 9 7 6 10 10 10 9 6 9 10 11 12 14 14 14 14 15 16 16 15 14 14
29 29 27 26 24 23 20 18 17 12 8 4 5 3 1 1 0 1 1 4 6 6 7 5 5 6 6 4 4 4 3 0 2 6 15 19 16 11 5 6 7 5 5 6 7 5 5 8 8 7 7 8 7 8 9 5 2 2 2 1 1 2 1 1 3 1 7 6 4 7 8 10 11 7 8 11 12 14 15 16 15 16 15 15 16 16 15 13
29 28 26 25 23 21 19 17 13 6 3 4 4 3 2 1 3 3 2 4 4 4 6 5 3 6 7 8 8 3 1 1 4 7 13 16 11 7 5 6 8 6 6 7 6 6 7 8 7 7 8 8 5 5 7 6 5 4 3 2 2 2 2 1 3 1 6 6 2 4 7 9 10 8 9 13 13 13 15 16 15 15 16 15 16 15 14 14
29 27 25 24 22 20 18 14 6 1 2 2 5 4 1 4 5 5 6 3 4 2 2 3 3 5 5 5 6 6 3 2 5 7 12 14 7 4 8 7 6 6 8 9 7 7 7 5 7 9 8 8 5 4 6 5 5 4 4 4 3 2 2 1 4 3 6 5 3 2 5 7 7 7 9 12 13 11 12 14 12 13 16 15 15 13 14 16
27 25 25 23 21 20 17 8 2 1 3 1 5 4 5 8 5 6 6 2 3 2 2 3 2 4 3 2 5 7 3 1 3 6 10 13 6 3 7 7 6 7 8 8 7 6 3 3 9 9 8 9 6 5 6 5 4 5 5 6 4 2 3 1 3 2 4 6 3 2 4 4 4 6 7 8 10 10 9 12 12 12 14 14 14 14 14 16
26 25 24 22 21 19 11 2 4 4 5 3 4 4 9 10 3 7 4 1 1 2 1 1 1 3 2 0 4 4 1 1 0 1 6 8 6 4 4 3 4 6 8 8 7 6 3 4 9 9 8 8 7 5 6 6 4 4 6 8 7 5 4 1 1 2 2 4 3 3 4 1 1 4 6 6 8 10 10 12 14 13 13 13 14 15 14 14
27 25 23 21 19 14 5 4 3 6 2 3 1 7 10 10 2 7 3 1 1 2 1 1 1 2 1 0 2 3 2 3 2 2 4 3 2 2 3 3 1 3 8 7 4 4 3 4 7 9 9 8 7 6 5 5 5 4 4 7 8 6 5 4 2 3 3 0 1 3 4 2 0 1 2 5 8 11 11 12 14 13 14 14 14 14 14 14
26 23 21 18 15 11 4 2 3 3 1 1 4 9 11 7 2 6 3 1 3 2 1 0 0 0 1 0 0 2 2 3 1 4 7 4 1 1 3 5 3 2 5 5 3 3 4 6 6 7 9 8 7 6 6 7 7 3 3 6 9 8 8 7 5 4 2 2 1 5 4 4 2 2 5 1 6 7 8 10 11 11 14 16 15 15 16 15
24 21 18 14 10 8 3 0 2 1 1 3 6 10 11 4 5 3 3 1 3 2 1 1 1 1 1 1 1 0 1 1 2 3 5 6 5 2 5 5 5 5 4 5 5 2 5 8 7 8 7 6 6 5 7 10 7 3 3 4 6 7 7 7 5 3 0 2 4 4 4 3 2 4 7 4 2 4 4 7 9 12 14 15 15 16 17 17
23 19 15 10 6 5 4 2 1 1 1 6 8 10 9 1 4 2 2 2 3 2 0 2 0 1 1 1 3 4 3 3 2 3 4 5 8 2 3 1 2 6 3 3 5 2 2 5 5 7 6 4 6 5 9 12 7 2 4 4 3 2 2 3 4 3 2 2 5 5 7 5 0 5 7 6 6 8 8 7 7 10 14 15 16 16 16 15
21 17 13 8 3 3 4 2 0 1 3 6 9 9 4 2 2 2 1 3 3 1 0 2 2 2 1 3 4 6 6 5 4 4 4 4 7 7 3 1 1 4 3 1 3 2 2 1 1 2 2 2 3 4 8 13 7 5 6 5 3 2 2 1 1 2 2 4 6 5 9 7 1 4 6 6 6 9 8 7 8 7 10 15 15 15 16 15
18 14 12 9 4 1 1 1 2 4 6 8 10 6 1 2 1 0 3 2 2 2 2 2 2 4 4 6 4 4 6 8 6 5 6 4 6 10 5 1 2 2 3 2 3 1 3 4 2 1 2 3 1 2 3 8 8 6 5 5 4 2 2 2 2 2 4 5 3 3 7 7 2 3 6 7 8 10 9 8 10 10 9 10 14 15 15 15
14 13 12 10 5 2 2 4 6 8 9 9 7 2 2 0 2 2 2 1 1 4 3 2 3 4 8 10 8 6 5 7 7 7 7 5 6 9 6 4 2 3 4 3 4 3 4 3 2 1 1 6 1 4 3 4 7 7 6 6 5 4 4 5 4 4 5 3 1 1 5 5 3 4 6 8 9 11 10 9 10 11 11 10 11 15 15 14
13 14 15 14 9 7 7 8 9 9 9 6 2 1 1 2 4 2 3 3 2 3 3 2 3 2 7 9 7 6 7 6 5 5 5 5 7 6 5 8 6 2 2 0 3 4 4 3 5 2 1 6 4 3 3 4 7 8 8 7 6 5 6 7 4 3 4 3 1 0 3 4 5 4 7 8 9 10 10 9 10 10 11 11 10 14 15 15
12 15 17 17 16 15 13 10 7 6 6 2 2 2 3 4 3 3 3 3 2 2 3 2 2 5 8 7 3 3 6 7 6 6 5 4 5 4 5 9 10 4 0 0 2 2 3 4 3 3 1 5 5 2 1 2 7 7 6 6 6 5 5 5 5 5 5 4 2 3 4 3 5 4 6 7 7 9 9 10 11 11 11 11 7 10 15 15
7 13 17 18 20 19 14 9 7 6 4 1 2 4 5 3 2 3 3 4 3 3 4 3 2 5 7 5 4 4 4 4 4 7 8 6 5 5 5 7 10 7 1 0 1 1 1 2 4 3 1 4 5 3 3 1 5 4 2 4 5 5 3 1 2 3 3 4 3 3 2 2 5 5 7 8 8 10 11 13 14 14 14 12 9 4 7 12
2 8 13 18 23 21 15 10 7 5 3 1 5 6 4 2 2 2 3 5 4 5 6 3 5 5 4 2 4 6 6 4 2 3 6 6 6 7 6 4 7 7 3 0 1 0 1 3 4 3 1 4 6 2 2 2 2 4 4 5 2 0 1 1 2 1 0 4 3 2 3 4 4 3 9 12 12 14 15 16 16 16 16 14 12 11 8 6
2 3 8 20 27 22 16 13 8 4 2 3 7 4 1 1 1 2 5 6 4 3 3 1 4 3 2 2 3 6 5 3 3 3 2 3 4 7 8 4 3 6 5 2 1 1 0 3 3 3 2 6 7 1 4 6 3 2 4 3 3 1 1 1 2 2 4 7 3 3 5 5 2 1 9 14 16 17 17 16 16 16 16 15 13 12 12 11
4 1 4 19 26 20 15 14 8 2 1 5 8 5 1 2 2 3 5 6 3 1 2 3 2 2 1 2 3 6 5 1 3 3 2 3 3 4 7 4 3 7 7 4 0 1 1 2 3 2 2 5 6 1 3 6 6 1 1 1 1 2 3 2 2 4 7 7 4 5 6 6 3 2 9 14 16 16 15 15 15 16 16 14 14 14 14 14
6 2 3 17 22 14 14 14 7 3 5 6 5 4 1 2 3 5 6 4 1 1 2 3 2 3 4 2 2 5 6 3 2 2 2 3 2 3 6 3 4 8 8 5 1 1 2 1 3 3 3 2 4 4 2 5 5 1 1 1 1 1 2 2 1 2 4 5 4 5 5 4 4 5 8 11 13 13 13 13 14 15 16 13 13 14 14 13
5 1 2 17 19 9 13 16 9 5 6 4 2 2 2 2 3 7 8 5 2 2 2 2 2 3 5 4 3 4 6 6 4 2 2 3 1 2 7 5 5 8 7 4 3 1 2 0 1 3 4 1 2 5 4 5 5 2 1 2 2 2 1 1 1 2 1 3 4 5 5 4 4 4 6 9 10 11 12 12 11 13 15 14 14 14 14 13
3 2 2 17 18 6 10 13 7 4 3 3 2 2 3 3 4 7 9 7 5 5 4 4 4 4 4 4 4 2 3 5 5 4 3 4 2 2 7 7 5 6 5 2 3 3 2 1 1 2 4 4 5 3 3 5 6 5 4 3 2 2 1 4 4 2 1 1 2 4 5 4 3 3 5 7 8 10 12 12 11 12 15 15 15 15 15 15
2 2 4 18 18 7 10 7 3 3 3 3 3 2 3 4 5 7 8 6 5 5 5 5 6 5 4 3 4 2 3 4 5 4 5 5 5 4 6 8 5 4 3 1 2 3 2 1 3 4 4 4 6 3 3 5 3 3 5 5 3 2 2 2 4 3 2 1 1 3 5 4 2 3 5 6 7 9 11 12 11 11 13 14 15 17 17 16
1 1 6 19 14 3 7 5 2 4 4 2 2 2 3 4 5 7 7 7 5 4 5 6 4 4 5 4 3 2 3 4 4 4 4 4 6 4 6 9 6 3 2 1 1 2 1 1 3 4 3 1 4 3 2 4 2 1 5 7 5 3 3 2 1 1 2 2 2 3 5 3 1 4 6 7 8 9 10 12 12 11 11 13 15 16 16 16
1 1 4 17 13 3 3 4 3 4 4 2 3 4 4 4 6 8 7 8 6 3 4 5 4 4 4 4 4 3 2 2 3 4 2 3 3 4 6 9 8 5 4 3 1 2 1 1 1 3 3 2 4 4 3 1 3 3 3 7 7 7 4 1 1 1 2 1 1 2 5 4 3 5 6 7 8 10 10 11 12 12 11 12 13 13 14 15
2 1 2 13 17 9 3 1 3 4 3 3 5 5 4 3 4 5 6 7 6 4 3 3 3 4 4 3 5 6 5 4 3 1 1 3 2 3 6 9 8 7 7 6 3 2 1 2 1 1 2 3 2 1 2 0 3 2 4 7 9 10 8 2 1 1 3 1 1 1 5 6 5 6 7 8 9 9 11 11 11 12 12 12 12 12 13 14
1 2 1 5 10 7 3 2 2 3 3 2 4 4 4 3 2 3 4 6 6 6 5 3 2 2 4 5 6 8 9 8 5 3 2 2 2 2 4 6 8 9 9 9 7 2 2 3 3 3 2 1 3 3 1 2 2 2 4 8 9 10 9 3 1 1 3 4 3 4 4 9 7 6 7 8 9 9 10 10 10 11 12 12 12 11 12 13
1 2 2 1 2 3 3 4 3 2 1 1 2 2 4 4 2 3 4 4 4 5 5 5 4 3 4 5 5 6 7 7 7 5 3 2 1 1 3 4 8 11 10 8 7 2 3 3 4 6 8 6 5 5 2 1 2 3 5 7 8 9 9 5 4 3 1 3 4 2 3 8 7 5 6 7 7 7 8 9 9 10 10 11 11 12 14 14
1 1 0 1 1 2 3 4 5 4 4 2 1 2 3 4 4 4 3 2 3 4 3 4 7 7 5 3 3 3 3 5 6 3 2 2 1 1 2 3 6 9 7 6 5 2 3 3 3 5 8 7 5 4 4 3 3 3 4 6 6 7 7 7 7 4 3 1 6 6 6 8 6 4 6 7 6 7 7 7 8 8 10 11 12 14 15 15
1 2 0 1 1 2 1 3 4 5 6 4 3 3 3 4 5 3 2 2 4 5 4 4 6 7 5 3 2 3 2 2 4 2 1 2 1 1 2 2 3 5 5 5 4 2 1 3 3 4 6 6 4 4 5 5 3 4 5 6 5 4 5 6 6 6 6 7 9 9 9 9 5 4 5 5 5 5 5 6 8 10 11 12 13 14 14 14
1 2 0 1 3 2 1 2 3 3 5 3 2 3 2 3 4 2 2 3 4 3 3 5 6 5 6 6 5 6 3 2 4 3 1 1 1 1 1 0 1 3 4 3 3 2 1 2 2 2 3 3 4 5 6 5 3 5 7 8 7 5 5 5 5 6 7 9 10 10 10 8 4 3 5 4 3 4 6 8 9 10 11 12 13 14 14 14
2 1 1 2 2 3 2 2 2 2 3 3 2 2 1 3 3 2 3 4 3 3 4 5 6 4 5 7 8 6 3 1 3 3 1 1 1 1 1 0 1 1 4 3 2 3 2 2 2 1 2 2 2 5 7 4 3 5 6 8 7 5 4 4 3 4 3 7 10 8 6 5 4 3 3 3 4 5 8 9 8 8 10 12 12 13 13 14
2 1 1 1 2 2 2 1 1 1 2 2 1 1 2 2 1 2 3 3 3 3 4 4 3 3 4 6 7 5 2 1 2 2 1 2 3 3 2 3 2 2 2 2 2 2 1 2 3 2 2 3 1 4 5 0 3 3 4 4 5 3 3 2 3 5 4 5 7 4 4 5 4 3 2 3 5 6 8 8 7 8 9 11 11 12 12 12
Wind_Direction
349 348 346 345 345 343 343 342 340 341 342 340 341 343 341 339 339 337 336 335 335 338 336 330 336 344 345 345 341 335 332 320 308 288 250 264 260 229 192 174 168 158 162 164 150 137 131 130 131 142 144 139 160 162 165 170 152 187 214 238 265 177 40 32 0 350 350 171 160 160 164 150 143 140 134 148 131 123 120 103 98 88 95 124 128 134 142 149
348 347 344 344 343 341 341 340 338 339 340 340 340 339 339 337 335 334 333 333 330 328 329 321 322 334 340 344 343 339 331 317 300 272 259 268 251 209 179 170 169 163 164 162 154 145 137 137 140 147 143 135 156 164 173 174 182 219 215 241 256 192 352 313 314 315 291 187 157 166 165 157 147 146 162 159 143 136 125 118 110 103 112 123 129 138 145 151
346 345 344 343 341 340 339 338 337 338 339 341 340 339 337 335 333 332 330 328 325 319 319 313 310 321 332 337 339 336 326 314 283 262 275 287 224 199 174 170 170 167 169 166 162 155 143 139 145 145 130 137 145 166 179 172 188 217 216 256 233 239 300 275 296 310 286 167 158 169 164 162 149 148 175 156 152 157 144 142 136 129 135 137 140 145 149 154
345 343 342 341 340 339 337 337 338 338 339 341 341 340 336 333 331 328 327 322 319 312 308 309 304 307 323 331 335 336 320 287 275 266 346 335 195 180 173 169 167 168 170 167 163 157 140 135 144 141 127 141 140 164 180 177 182 193 207 251 142 25 309 292 314 324 270 171 165 165 163 166 155 156 177 151 158 176 167 161 151 146 148 147 149 151 153 157
343 342 341 340 338 338 337 337 339 339 340 340 340 338 334 332 328 326 324 317 313 304 300 303 299 301 316 332 340 334 313 234 358 341 329 309 176 169 168 165 167 168 166 160 153 146 137 136 141 135 134 144 153 169 183 187 188 204 223 259 265 286 297 301 322 323 161 157 160 164 167 162 153 166 178 168 174 180 170 166 152 148 153 154 155 155 157 161
341 341 341 339 337 337 337 336 338 340 342 341 338 335 332 328 325 324 320 312 305 291 293 295 291 299 311 331 340 328 297 242 336 331 337 186 164 162 161 164 168 165 162 152 140 139 135 141 153 150 160 150 169 173 166 187 199 236 238 259 260 270 278 291 313 279 160 162 164 165 161 149 157 174 183 188 192 120 150 155 151 151 154 155 155 158 161 165
340 340 340 338 336 336 336 335 337 339 340 339 336 332 328 325 322 320 316 308 299 283 285 288 283 290 312 331 328 331 275 280 318 332 5 149 157 156 158 164 167 162 158 147 140 148 142 152 167 154 165 157 177 180 149 182 202 238 253 273 270 271 270 280 297 248 190 181 167 155 152 157 171 171 178 192 120 115 144 148 148 148 152 154 156 161 165 166
340 340 339 337 335 335 334 333 336 337 337 336 334 330 326 323 318 315 310 302 289 272 271 273 270 272 304 338 307 314 229 272 310 121 144 153 153 153 155 159 164 160 154 150 148 152 145 157 164 151 180 166 165 181 164 178 200 231 255 276 275 276 274 280 286 216 191 182 156 152 161 169 172 150 170 182 131 129 144 144 146 147 151 157 159 163 167 168
340 338 336 335 334 334 332 333 335 335 335 334 333 330 326 322 316 311 304 296 276 257 262 258 249 245 252 128 299 291 212 298 292 159 155 156 155 156 154 155 164 160 152 151 150 151 152 164 163 164 201 164 162 180 179 193 196 215 242 264 271 279 282 283 271 205 185 171 158 164 169 166 156 135 168 175 140 135 144 145 148 152 156 159 162 165 168 170
339 336 335 334 333 332 332 335 335 334 335 334 332 330 327 323 314 307 295 285 259 243 247 237 226 196 170 177 239 231 6 328 192 158 162 161 156 157 154 156 164 161 151 148 152 158 162 165 161 173 193 155 167 173 177 204 248 218 245 265 269 279 284 283 259 197 175 165 171 172 170 166 159 177 193 170 154 146 146 150 153 158 161 162 165 167 170 172
337 335 334 333 332 331 333 336 336 335 336 335 333 332 329 321 309 299 283 266 237 233 229 213 201 169 162 165 219 225 1 319 169 158 167 166 159 162 162 162 165 163 153 147 160 161 154 162 166 174 162 159 171 164 172 207 309 279 273 283 272 276 280 279 232 182 164 163 178 165 153 166 170 212 212 161 159 160 152 153 160 165 163 165 168 168 173 173
336 335 334 333 332 331 333 337 336 336 337 336 336 334 326 316 303 288 271 244 223 224 211 195 177 153 148 172 232 235 30 65 162 165 169 168 164 167 170 168 167 167 161 153 165 164 153 167 180 181 130 172 170 164 182 245 303 277 277 289 283 289 292 340 164 175 169 163 171 158 148 185 195 208 184 154 157 162 159 157 164 169 165 169 172 172 176 175
334 334 333 332 332 330 332 336 337 338 339 339 339 333 325 317 302 280 253 225 214 207 190 179 167 154 156 248 241 217 118 66 151 170 170 170 167 164 171 173 172 173 168 163 168 169 161 168 188 187 138 218 163 154 286 267 283 261 243 272 287 297 308 56 117 169 170 157 168 180 193 188 196 200 159 154 160 160 163 164 168 171 171 174 176 177 179 178
333 333 331 330 331 330 333 336 339 340 340 342 341 335 331 325 310 281 224 203 192 178 172 165 159 152 177 261 298 242 216 263 181 178 174 172 161 147 162 171 172 172 168 166 172 175 166 147 167 183 217 264 209 317 290 249 268 257 222 221 275 287 46 60 133 168 165 158 175 204 250 114 171 184 162 158 164 163 166 170 173 175 176 180 179 182 183 183
332 332 330 330 329 330 334 337 341 341 342 345 343 343 346 338 325 262 187 177 167 158 155 149 154 158 284 267 293 77 188 198 194 188 185 179 160 140 157 165 163 160 148 133 166 184 182 138 148 187 201 241 279 284 288 332 190 285 225 193 196 259 87 78 163 182 174 159 184 208 247 14 109 165 162 160 167 167 170 175 179 180 180 184 183 185 187 187
332 332 330 329 329 332 334 337 342 341 343 348 350 6 15 12 33 124 150 148 149 147 145 146 165 193 288 284 128 130 163 181 196 197 193 188 175 151 146 150 145 146 145 114 126 175 183 177 171 193 223 203 221 233 190 209 181 166 236 206 160 217 228 114 153 194 183 151 187 213 256 9 70 150 163 162 170 173 178 181 184 185 183 186 186 187 190 189
332 332 331 331 331 333 335 338 342 339 342 352 6 46 51 56 84 109 124 128 127 125 124 138 165 205 268 271 157 162 187 194 196 196 191 191 184 155 138 133 133 134 145 134 108 142 163 178 180 185 230 205 182 182 193 202 185 163 209 208 119 211 232 182 150 187 186 173 194 211 239 252 87 141 171 171 173 177 184 185 186 189 188 189 189 191 193 190
332 332 333 334 332 333 335 339 341 338 342 357 60 77 75 81 95 111 118 118 113 108 101 112 160 204 229 243 231 204 274 209 149 178 182 180 173 155 135 125 136 135 138 147 148 146 159 179 192 184 195 200 199 199 194 191 183 171 182 191 157 179 218 212 134 168 184 195 203 204 227 243 206 146 171 183 182 184 188 187 188 193 192 192 191 192 193 190
333 333 334 334 333 334 336 339 341 337 343 15 108 92 87 90 94 114 118 116 130 156 111 154 191 261 240 243 296 312 303 260 186 161 165 159 154 142 115 120 134 137 145 155 164 166 165 162 183 200 201 200 195 197 201 122 143 154 145 161 142 155 201 217 18 171 185 196 207 207 223 239 229 177 174 185 187 192 194 192 194 196 196 197 196 194 192 192
337 335 334 334 335 336 336 340 340 335 343 32 140 121 90 102 110 134 132 187 223 256 301 210 199 273 302 272 306 321 314 258 178 158 161 158 148 130 107 123 132 141 157 156 156 165 178 175 189 203 192 178 168 187 215 242 85 132 118 120 105 319 193 187 345 174 189 206 216 214 226 242 240 202 177 178 187 197 198 195 197 198 199 200 199 198 194 194
339 336 334 335 335 335 337 339 337 331 348 42 157 172 81 125 288 306 293 259 236 242 261 243 214 258 281 282 296 332 355 211 90 131 159 160 151 141 134 151 152 159 160 145 136 142 190 203 196 181 152 152 162 190 212 218 213 216 197 171 178 236 233 48 10 167 194 216 229 213 234 247 246 226 178 172 189 201 199 196 197 197 200 203 203 200 196 194
338 336 334 336 334 334 337 335 335 334 8 48 132 148 110 69 321 270 249 288 268 233 237 244 253 265 272 272 265 250 147 170 106 119 154 160 167 173 163 175 175 162 149 149 144 150 194 211 173 140 136 144 153 185 201 204 214 224 220 232 212 204 268 60 42 32 191 214 264 208 232 249 247 234 190 183 195 203 201 198 198 195 197 204 205 201 196 194
337 335 333 334 332 332 335 334 338 41 26 50 123 113 61 343 327 224 201 282 288 264 215 220 230 249 265 269 233 186 174 197 142 141 159 163 179 184 160 178 184 150 155 175 175 169 193 204 156 139 143 150 144 162 180 188 209 217 214 226 207 158 247 161 71 64 172 212 288 221 243 258 248 232 209 201 202 203 202 200 199 195 197 202 201 200 197 194
337 334 331 331 330 331 335 340 81 68 347 121 138 75 359 343 345 185 191 290 286 288 236 213 225 226 263 282 181 171 174 204 152 148 166 166 153 152 166 173 169 154 167 184 186 180 171 147 151 149 153 169 172 159 177 197 202 206 217 230 224 195 238 258 46 54 183 217 246 249 268 263 235 233 225 208 202 204 198 196 201 198 199 202 201 203 201 198
338 334 331 331 330 333 343 55 101 7 339 156 144 10 353 345 331 181 198 302 235 305 227 182 253 213 236 264 170 189 171 95 344 136 163 168 146 151 171 157 175 177 167 164 181 194 158 126 155 159 158 174 185 180 193 211 212 211 214 225 236 230 227 219 31 319 243 217 203 229 264 244 150 238 230 193 193 207 200 199 207 200 196 201 204 206 202 201
341 338 335 334 333 343 27 122 36 0 347 146 50 347 349 343 310 176 209 307 103 357 336 136 224 187 202 196 167 216 161 103 330 47 99 140 149 157 162 154 227 180 157 153 180 207 157 138 165 168 166 174 195 207 196 199 224 232 198 207 224 229 223 209 214 269 267 288 144 219 258 293 169 260 253 202 197 205 206 209 211 202 200 204 205 206 203 201
344 342 338 338 342 356 58 153 346 9 140 151 337 340 346 343 142 162 229 260 91 4 322 74 272 85 23 38 150 222 162 121 136 70 51 26 358 234 181 171 186 142 147 157 177 198 160 156 164 159 164 177 201 213 184 190 223 231 150 185 205 215 220 211 213 244 275 336 273 208 231 285 275 18 16 263 217 218 222 229 227 219 216 211 206 205 204 203
348 344 340 346 355 8 42 79 357 107 118 351 333 338 342 337 151 169 262 114 56 333 314 24 275 307 348 37 35 24 70 56 130 68 13 20 39 226 197 181 184 149 147 185 185 163 165 178 173 162 173 185 201 203 173 187 219 221 155 180 198 212 219 210 214 230 310 304 261 196 189 244 254 35 28 32 350 325 302 278 259 243 235 225 216 208 204 204
350 344 341 351 9 20 26 17 49 151 356 349 337 335 336 335 156 241 255 90 25 318 339 5 286 317 346 60 31 25 39 28 45 25 339 18 32 31 170 139 159 133 122 217 199 141 147 205 184 177 203 206 198 198 175 186 212 185 143 145 149 162 181 192 210 194 137 244 252 196 189 220 35 42 24 31 22 355 339 322 290 253 238 232 228 221 211 206
352 344 339 348 7 18 3 345 86 33 342 341 338 335 335 136 181 256 100 60 355 316 320 322 298 320 337 108 51 25 36 35 15 20 27 32 30 38 79 51 81 131 121 239 208 139 81 216 155 150 224 238 207 200 182 191 187 128 145 167 152 117 120 134 129 147 167 222 245 217 198 216 236 54 28 19 5 348 335 327 324 294 248 227 223 224 219 212
358 354 351 354 350 335 351 330 317 329 329 332 338 340 107 127 274 63 76 61 325 345 3 336 350 25 65 96 69 16 38 40 12 20 41 29 33 38 33 329 18 126 148 152 189 117 92 147 132 82 22 29 182 175 171 198 183 152 169 188 180 152 152 157 126 171 212 214 247 231 191 204 223 50 19 360 352 350 342 331 329 324 298 247 219 213 213 212
15 21 21 19 9 317 300 308 310 314 317 325 341 1 174 125 38 53 28 327 337 359 358 356 359 49 83 82 59 21 46 50 21 39 55 40 51 49 37 26 356 203 173 171 179 135 113 117 44 304 72 32 2 181 131 172 186 185 188 185 185 172 172 190 179 190 213 211 344 30 178 180 106 61 8 356 357 352 346 339 332 326 320 292 235 210 204 203
36 39 36 30 20 354 332 322 312 310 315 316 339 102 158 76 53 14 326 338 31 12 356 2 349 43 87 84 65 32 49 49 9 33 54 45 64 72 57 40 12 247 169 185 177 156 153 114 22 3 125 15 342 202 156 157 184 194 189 189 196 181 177 188 176 171 202 207 314 56 185 169 120 75 4 2 3 355 350 347 343 333 326 315 266 218 203 199
49 42 32 24 15 3 351 342 329 324 338 333 165 96 73 70 32 317 323 342 340 352 357 342 350 53 65 67 49 14 51 52 24 33 50 45 52 42 30 31 19 7 4 46 152 184 183 148 37 19 4 352 2 359 338 149 170 184 186 189 199 203 197 188 178 180 178 160 122 161 187 171 140 114 13 9 10 9 7 359 357 354 347 342 306 224 206 203
51 33 25 17 8 2 0 359 355 355 359 41 101 59 63 69 337 309 346 333 307 335 348 342 19 59 67 55 29 20 39 56 29 36 51 56 50 23 358 5 10 10 328 177 105 307 199 106 16 352 293 342 3 354 325 185 164 153 169 194 200 212 216 170 176 189 163 136 119 155 161 64 127 121 39 22 23 24 19 12 12 6 1 6 6 326 230 214
20 14 16 11 3 1 4 3 359 355 333 100 77 57 65 73 343 321 330 324 321 320 318 354 34 48 74 58 28 24 28 48 29 33 51 55 51 27 2 341 1 9 4 54 101 337 141 98 12 338 147 28 360 343 37 8 194 149 167 191 167 291 256 170 151 42 208 176 151 143 121 81 146 134 28 18 24 25 19 17 16 10 6 12 15 4 339 278
353 350 12 9 3 1 5 5 359 339 308 74 77 70 93 94 1 311 314 308 299 301 294 49 30 12 62 65 25 3 5 39 29 25 45 34 37 12 352 329 348 9 3 340 76 29 220 124 58 10 47 24 357 227 104 38 4 169 174 165 90 43 288 261 171 157 196 190 142 88 109 89 165 192 15 14 20 20 17 17 16 14 13 13 10 3 355 342
7 4 21 5 360 1 11 17 19 22 69 68 78 91 89 47 25 342 326 308 280 318 31 80 39 351 30 84 50 1 344 357 26 39 64 29 39 8 350 333 330 3 358 319 240 85 335 142 112 44 359 8 7 213 147 32 18 37 115 95 103 194 186 192 201 183 191 186 127 108 114 71 37 7 13 16 20 17 14 16 17 17 18 15 8 2 0 1
19 58 18 358 357 5 28 37 40 55 71 65 71 84 33 3 13 353 340 330 280 342 38 67 50 44 52 76 98 29 21 52 50 54 64 23 45 22 7 345 312 348 353 339 18 123 314 205 134 43 350 309 20 36 9 360 13 84 122 69 8 293 202 184 205 202 197 182 142 140 139 81 39 21 23 27 25 18 16 17 19 20 19 18 15 8 5 9
21 79 355 355 357 12 42 49 48 36 64 69 49 53 22 336 344 352 356 9 22 7 45 71 41 69 77 70 91 56 39 52 53 63 54 21 74 65 20 5 317 331 337 351 42 38 298 311 120 27 11 301 55 43 29 10 13 39 65 47 35 347 276 171 83 15 259 190 161 161 147 93 47 32 40 40 33 26 24 23 24 23 20 21 21 19 16 15
14 71 342 350 354 15 48 48 44 29 64 69 45 37 19 5 349 354 1 14 39 43 54 74 60 71 97 75 67 58 53 59 47 60 72 30 38 57 17 3 319 315 323 347 30 17 345 9 63 45 42 78 98 66 20 17 18 33 47 28 354 337 225 189 176 122 14 265 169 163 141 97 39 34 53 47 43 36 28 27 30 26 22 22 21 22 24 23
29 68 340 345 353 39 66 52 21 30 66 61 46 18 6 15 357 351 357 9 42 53 48 57 53 50 66 66 61 58 72 68 36 47 84 55 40 29 351 339 310 302 333 15 16 8 5 37 60 74 58 81 125 121 17 8 357 27 48 33 0 345 331 240 191 146 112 89 98 111 112 95 21 34 62 55 49 42 31 28 30 28 23 20 19 20 23 25
40 58 357 354 352 54 78 60 47 54 61 56 49 25 19 28 10 2 6 12 25 42 41 39 32 39 50 52 69 79 63 60 40 50 97 78 45 18 329 330 328 325 356 26 17 6 23 43 60 89 84 136 187 210 343 7 346 26 40 23 16 8 339 324 357 111 130 119 136 132 116 110 32 49 69 65 52 44 36 30 28 29 25 21 20 19 19 23
34 215 350 9 18 92 94 66 97 84 66 55 57 43 33 42 27 19 20 21 21 29 49 42 25 37 51 48 67 74 37 60 68 49 70 85 39 358 338 346 357 19 25 13 358 356 13 12 45 121 131 177 206 215 194 89 24 38 23 3 12 16 4 337 308 293 108 52 290 160 128 118 67 58 63 56 48 43 39 34 31 30 26 23 23 19 17 21
37 179 280 11 32 59 75 59 101 98 90 69 61 41 27 58 42 16 24 34 30 28 57 51 18 37 56 63 73 60 30 43 90 86 65 90 63 356 349 350 0 28 42 38 23 359 48 30 328 188 179 196 184 149 160 79 5 20 2 358 11 11 2 354 200 156 119 112 319 73 117 122 88 61 51 39 36 39 36 32 31 30 28 26 27 23 19 19
42 48 308 1 27 47 59 20 47 90 100 78 65 36 19 52 42 354 21 40 29 31 54 53 359 29 52 60 74 59 37 43 73 101 99 76 74 28 337 340 5 20 30 38 29 18 113 64 17 37 60 95 102 73 38 340 354 18 6 3 10 4 354 343 168 96 114 131 98 44 103 126 98 60 56 44 33 32 29 27 28 28 27 28 29 30 28 23
100 49 5 351 22 30 45 33 18 53 94 75 75 28 12 31 31 12 34 44 22 22 47 45 19 27 53 62 77 63 40 49 63 71 71 50 61 8 316 340 10 5 7 25 17 8 117 80 37 59 70 79 87 74 49 1 15 14 360 359 2 359 358 21 72 68 60 141 111 79 132 127 100 60 65 63 53 44 30 26 28 26 28 30 31 34 33 29
60 105 279 282 17 22 29 13 7 44 64 58 79 56 29 42 46 35 32 50 32 11 33 53 28 24 41 61 96 81 45 55 59 47 45 54 53 350 1 20 14 359 5 29 19 17 95 83 58 81 89 88 77 57 35 15 26 27 11 10 6 360 11 40 62 49 342 60 114 138 141 116 98 75 70 70 69 63 43 30 29 31 32 32 33 36 34 31
59 105 74 308 81 80 27 337 346 45 55 44 54 58 45 51 57 50 359 36 56 21 20 66 38 21 30 33 88 97 68 77 80 51 21 60 47 29 39 38 19 6 14 41 37 11 62 86 89 110 105 82 43 30 23 11 35 67 52 42 39 39 43 46 57 66 75 93 112 128 121 103 95 86 79 79 80 73 59 40 33 32 30 29 32 34 33 32
70 99 18 63 80 64 31 351 352 45 46 31 51 57 41 50 60 69 5 27 71 48 39 82 70 45 44 47 71 82 65 86 92 87 174 169 61 75 68 295 2 22 20 34 37 357 343 95 93 130 122 75 14 6 12 14 69 92 69 49 47 70 70 47 55 80 93 109 123 126 116 109 112 98 85 84 81 76 67 51 40 33 26 26 31 30 28 29
69 66 340 103 72 11 15 32 1 45 49 29 47 64 63 59 62 90 50 19 42 85 99 107 96 70 55 58 67 67 52 69 61 49 152 148 40 53 58 254 231 3 28 36 16 4 35 108 116 176 161 114 26 357 359 17 112 113 78 45 30 49 64 41 42 48 72 130 142 140 126 124 141 137 103 65 56 61 59 53 47 39 29 27 29 27 25 24
77 78 27 102 87 7 17 50 1 70 68 11 14 49 59 68 128 177 97 40 15 56 100 139 124 89 73 66 61 48 25 275 340 6 83 90 68 68 60 76 92 3 29 63 33 14 47 126 140 177 178 145 89 345 343 311 170 142 84 36 3 17 53 64 69 44 49 141 161 152 127 125 136 155 133 63 50 50 51 49 46 41 33 29 27 25 21 19